Time,TemperatureF,DewpointF,PressureIn,WindDirection,WindDirectionDegrees,WindSpeedMPH,WindSpeedGustMPH,Humidity,HourlyPrecipIn,Conditions,Clouds,dailyrainin,SoftwareType,DateUTC
2013-09-21 00:24:00,60.0,56.0,29.71,North,8,10.0,15.0,86,0.00,,,0.01,,2013-09-21 04:24:00,
2013-09-21 00:54:00,59.0,54.0,29.72,North,6,9.0,14.0,83,0.00,,,0.01,,2013-09-21 04:54:00,
2013-09-21 01:23:00,58.0,53.0,29.72,North,0,3.0,14.0,84,0.00,,,0.01,,2013-09-21 05:23:00,
2013-09-21 01:34:00,58.0,53.0,29.72,North,0,3.0,14.0,84,0.00,,,0.01,,2013-09-21 05:34:00,
2013-09-21 01:53:00,58.0,53.0,29.72,NNW,336,5.0,13.0,84,0.00,,,0.01,,2013-09-21 05:53:00,
2013-09-21 02:02:00,58.0,53.0,29.72,NNW,336,5.0,13.0,84,0.00,,,0.01,,2013-09-21 06:02:00,
2013-09-21 02:12:00,58.0,53.0,29.72,NNW,336,5.0,13.0,84,0.00,,,0.01,,2013-09-21 06:12:00,
2013-09-21 02:22:00,58.0,53.0,29.72,NNW,336,5.0,13.0,84,0.00,,,0.01,,2013-09-21 06:22:00,
2013-09-21 02:42:00,58.0,54.0,29.72,NNW,336,5.0,12.0,86,0.00,,,0.01,,2013-09-21 06:42:00,
2013-09-21 02:53:00,58.0,54.0,29.72,North,11,4.0,12.0,85,0.00,,,0.01,,2013-09-21 06:53:00,
2013-09-21 03:22:00,57.0,53.0,29.72,North,0,2.0,10.0,87,0.00,,,0.01,,2013-09-21 07:22:00,
2013-09-21 03:52:00,56.0,53.0,29.72,NNE,31,5.0,8.0,89,0.00,,,0.01,,2013-09-21 07:52:00,
2013-09-21 04:13:00,56.0,53.0,29.71,NNE,14,3.0,6.0,89,0.00,,,0.01,,2013-09-21 08:13:00,
2013-09-21 04:22:00,56.0,53.0,29.71,NNE,14,2.0,6.0,90,0.00,,,0.01,,2013-09-21 08:22:00,
2013-09-21 04:52:00,55.0,52.0,29.72,North,0,6.0,10.0,91,0.00,,,0.01,,2013-09-21 08:52:00,
2013-09-21 05:02:00,55.0,52.0,29.72,North,0,6.0,10.0,91,0.00,,,0.01,,2013-09-21 09:02:00,
2013-09-21 05:22:00,55.0,53.0,29.72,North,10,3.0,6.0,92,0.00,,,0.01,,2013-09-21 09:22:00,
2013-09-21 05:54:00,55.0,52.0,29.72,NNE,12,5.0,9.0,89,0.00,,,0.01,,2013-09-21 09:54:00,
2013-09-21 06:23:00,54.0,50.0,29.72,North,0,3.0,8.0,87,0.01,,,0.02,,2013-09-21 10:23:00,
2013-09-21 06:52:00,55.0,51.0,29.72,North,9,3.0,9.0,87,0.01,,,0.02,,2013-09-21 10:52:00,
2013-09-21 07:23:00,55.0,51.0,29.73,North,357,4.0,11.0,85,0.01,,,0.02,,2013-09-21 11:23:00,
2013-09-21 07:33:00,55.0,51.0,29.73,North,357,4.0,11.0,85,0.01,,,0.02,,2013-09-21 11:33:00,
2013-09-21 07:52:00,54.0,51.0,29.73,North,358,5.0,8.0,89,0.00,,,0.02,,2013-09-21 11:52:00,
2013-09-21 08:22:00,54.0,50.0,29.74,NW,316,3.0,9.0,87,0.00,,,0.02,,2013-09-21 12:22:00,
2013-09-21 08:52:00,55.0,51.0,29.75,NNW,343,8.0,10.0,86,0.00,,,0.02,,2013-09-21 12:52:00,
2013-09-21 09:21:00,55.0,49.0,29.75,North,354,4.0,11.0,81,0.00,,,0.02,,2013-09-21 13:21:00,
2013-09-21 09:42:00,55.0,49.0,29.75,North,354,5.0,13.0,80,0.00,,,0.02,,2013-09-21 13:42:00,
2013-09-21 09:52:00,55.0,49.0,29.75,NNW,347,6.0,13.0,81,0.00,,,0.02,,2013-09-21 13:52:00,
2013-09-21 10:22:00,54.0,50.0,29.77,North,0,1.0,17.0,86,0.00,,,0.02,,2013-09-21 14:22:00,
2013-09-21 10:52:00,54.0,50.0,29.76,NNW,331,3.0,10.0,87,0.00,,,0.02,,2013-09-21 14:52:00,
2013-09-21 11:22:00,53.0,49.0,29.77,North,358,3.0,15.0,87,0.00,,,0.02,,2013-09-21 15:22:00,
2013-09-21 11:55:00,53.0,49.0,29.77,NNW,339,8.0,14.0,85,0.00,,,0.02,,2013-09-21 15:55:00,
2013-09-21 12:24:00,52.0,48.0,29.78,WNW,298,2.0,16.0,86,0.00,,,0.02,,2013-09-21 16:24:00,
2013-09-21 12:54:00,55.0,47.0,29.78,North,355,14.0,17.0,73,0.00,,,0.02,,2013-09-21 16:54:00,
2013-09-21 13:23:00,56.0,46.0,29.78,North,10,7.0,15.0,68,0.00,,,0.02,,2013-09-21 17:23:00,
2013-09-21 13:52:00,54.0,46.0,29.79,North,4,10.0,23.0,73,0.00,,,0.02,,2013-09-21 17:52:00,
2013-09-21 14:12:00,53.0,45.0,29.79,North,356,9.0,17.0,75,0.00,,,0.02,,2013-09-21 18:12:00,
2013-09-21 14:22:00,55.0,46.0,29.79,NW,313,10.0,17.0,71,0.00,,,0.02,,2013-09-21 18:22:00,
2013-09-21 14:52:00,54.0,46.0,29.80,ENE,58,2.0,16.0,73,0.00,,,0.02,,2013-09-21 18:52:00,
2013-09-21 15:11:00,53.0,45.0,29.80,North,6,3.0,16.0,74,0.00,,,0.02,,2013-09-21 19:11:00,
2013-09-21 15:22:00,54.0,44.0,29.80,NNW,346,8.0,17.0,68,0.00,,,0.02,,2013-09-21 19:22:00,
2013-09-21 15:52:00,54.0,44.0,29.81,NNE,27,10.0,19.0,68,0.00,,,0.02,,2013-09-21 19:52:00,
2013-09-21 16:12:00,55.0,43.0,29.81,North,350,6.0,20.0,64,0.00,,,0.02,,2013-09-21 20:12:00,
2013-09-21 16:22:00,54.0,43.0,29.81,NNW,346,8.0,20.0,67,0.00,,,0.02,,2013-09-21 20:22:00,
2013-09-21 16:52:00,53.0,43.0,29.82,NNW,346,6.0,15.0,68,0.00,,,0.02,,2013-09-21 20:52:00,
2013-09-21 17:22:00,53.0,43.0,29.82,North,359,8.0,17.0,69,0.00,,,0.02,,2013-09-21 21:22:00,
2013-09-21 17:44:00,53.0,42.0,29.82,North,1,8.0,22.0,67,0.00,,,0.02,,2013-09-21 21:44:00,
2013-09-21 17:54:00,53.0,43.0,29.82,NNW,346,6.0,22.0,68,0.01,,,0.03,,2013-09-21 21:54:00,
2013-09-21 18:24:00,53.0,42.0,29.83,NNW,331,5.0,17.0,67,0.01,,,0.03,,2013-09-21 22:24:00,
2013-09-21 18:53:00,52.0,43.0,29.84,NNW,334,6.0,16.0,70,0.01,,,0.03,,2013-09-21 22:53:00,
2013-09-21 19:23:00,52.0,43.0,29.84,NNW,340,3.0,16.0,72,0.00,,,0.03,,2013-09-21 23:23:00,
2013-09-21 19:53:00,51.0,42.0,29.85,NW,313,6.0,13.0,72,0.00,,,0.03,,2013-09-21 23:53:00,
2013-09-21 20:12:00,51.0,42.0,29.85,NNE,14,6.0,12.0,70,0.00,,,0.03,,2013-09-22 00:12:00,
2013-09-21 20:23:00,51.0,41.0,29.85,North,0,6.0,12.0,68,0.00,,,0.03,,2013-09-22 00:23:00,
2013-09-21 20:43:00,51.0,41.0,29.85,NNW,332,7.0,11.0,69,0.00,,,0.02,,2013-09-22 00:43:00,
2013-09-21 20:52:00,51.0,42.0,29.87,NNW,344,7.0,15.0,71,0.00,,,0.02,,2013-09-22 00:52:00,
2013-09-21 21:12:00,51.0,42.0,29.87,NNE,16,8.0,14.0,72,0.00,,,0.02,,2013-09-22 01:12:00,
2013-09-21 21:21:00,50.0,42.0,29.88,North,11,9.0,15.0,74,0.00,,,0.02,,2013-09-22 01:21:00,
2013-09-21 21:42:00,49.0,42.0,29.88,NNE,12,6.0,16.0,78,0.00,,,0.02,,2013-09-22 01:42:00,
2013-09-21 21:52:00,49.0,42.0,29.88,North,351,3.0,16.0,76,0.00,,,0.02,,2013-09-22 01:52:00,
2013-09-21 22:22:00,50.0,40.0,29.88,NW,326,11.0,17.0,68,0.00,,,0.02,,2013-09-22 02:22:00,
2013-09-21 22:42:00,50.0,39.0,29.88,North,9,5.0,18.0,66,0.00,,,0.02,,2013-09-22 02:42:00,
2013-09-21 22:52:00,50.0,40.0,29.88,North,355,7.0,18.0,68,0.00,,,0.02,,2013-09-22 02:52:00,
2013-09-21 23:22:00,50.0,41.0,29.90,NNW,345,10.0,13.0,71,0.00,,,0.02,,2013-09-22 03:22:00,
2013-09-21 23:54:00,50.0,40.0,29.90,NNW,347,8.0,18.0,69,0.00,,,0.02,,2013-09-22 03:54:00,